Accueil
METAR-TAF:

METAR-TAF

Aéroports :

Carbon County Regional Airport (Buck Davis Field)

Price, Utah, États-Unis

latitude: 39-36-33N, longitude: 110-45-17W, altitude: 1805 m

Observation

Le bulletin a été fait il y a 1 heure et 1 minutes, à 19:53 UTC
Vent 6 kt de sud
Température 27°C
Humidité 42%
Pression 1026 hPa
Visibilité: 16.1 km
Nuages épars à une hauteur de 4400 ft

METAR: KPUC 301953Z AUTO 17006KT 10SM SCT044 27/13 A3030 RMK AO2 LTG DSNT NW SLP176 T02670133

Heure: 14:54 (20:54 UTC)


TAF: absent

Observations et prévisions météorologiques de plus de 4000 aéroports (messages METAR et TAF).

Les stations disponibles sont représentées par des disques jaunes et rouges sur la carte.

Passer la souris dessus pour voir le nom de la station.

Cliquer dessus pour voir les observations et prévisions météorologiques.

Pour changer de carte: cliquez sur les boutons verts avec une croix noire pour zoomer, sur le bouton vert avec un tiret pour effectuer un zoom arrière, ou sur les flèches vertes pour les cartes adjacentes.


METAR-TAF: